Theta_e
310 310 311 311 311 312 311 311 310 307 307 307 307 294 304 301 301 298 299 297 302 297 286 287 286 285 286 286 285 284 284 284 283 284 284 284 284 286 285 285 284 283 283 283 283 283 283 283 283 282 282 281 282 279 277 278 279 281 282 280 282 284 279 275 279 283 282 280 280 279 281 280 278 277 277 276 273 273 272 272 271 268 270 268 268 265 270
310 311 311 311 311 311 310 307 301 303 308 307 301 304 296 298 297 300 299 300 306 304 287 285 283 284 284 285 284 283 286 285 284 284 284 284 284 285 285 284 283 283 283 284 283 284 281 281 282 282 280 282 278 278 279 279 282 281 282 281 282 278 280 277 276 278 279 277 277 277 277 279 279 277 274 274 274 272 271 269 269 267 270 270 267 262 267
310 311 310 311 310 310 308 304 300 302 301 304 305 301 294 294 293 297 298 297 301 299 292 289 284 284 284 283 283 284 284 284 285 284 285 283 283 283 284 283 285 284 284 283 283 283 282 282 280 279 280 282 277 275 276 276 282 283 282 282 283 279 280 279 274 272 270 271 273 275 277 279 279 276 273 272 272 272 272 270 270 265 270 270 267 267 274
309 309 310 310 310 310 306 302 299 301 305 302 303 294 295 300 289 293 296 294 292 287 286 289 288 283 281 283 282 282 284 284 284 285 285 283 282 284 284 283 284 283 282 282 283 282 282 282 281 280 282 281 280 278 276 277 281 282 282 278 279 279 278 279 279 277 275 278 279 282 282 280 275 277 275 272 270 270 271 272 270 268 270 267 269 270 271
309 309 309 309 310 309 307 301 301 304 304 303 297 293 295 295 292 287 288 296 291 287 288 286 289 286 286 285 282 280 283 283 285 285 284 284 285 285 285 284 283 282 282 282 282 281 281 280 278 278 280 279 280 276 278 277 279 281 281 277 278 278 278 279 278 278 279 280 280 281 280 277 278 276 275 272 270 269 269 270 269 273 269 265 272 274 270
309 309 309 309 309 310 308 305 300 302 304 299 308 298 291 294 288 289 289 291 288 290 288 286 285 284 288 283 282 282 284 283 283 284 284 284 283 285 283 283 283 284 284 283 282 281 281 279 280 276 273 278 280 281 278 281 281 281 280 278 279 279 277 274 272 275 278 279 278 279 278 277 276 276 275 273 273 270 268 269 272 271 267 266 272 273 270
309 309 309 308 309 309 309 309 305 305 305 303 307 301 289 292 287 288 286 289 281 285 284 285 289 287 285 285 283 281 283 284 284 285 284 283 284 284 282 283 284 284 283 283 283 281 281 282 276 276 279 278 279 280 280 281 280 281 280 279 274 278 278 275 272 274 276 277 278 278 277 276 275 274 275 275 273 272 272 271 273 272 271 273 272 272 272
309 309 308 308 309 309 309 309 309 307 301 303 303 297 297 291 293 288 287 286 283 281 282 283 287 287 284 286 283 284 284 284 282 283 285 283 283 283 283 284 282 283 283 283 282 283 284 281 282 279 278 277 277 280 282 281 280 281 279 277 277 277 278 275 272 272 276 279 277 276 276 275 273 275 275 274 273 272 273 272 273 273 272 273 273 272 271
309 308 308 308 308 309 309 310 310 307 303 305 300 293 291 293 292 295 293 288 284 284 282 286 286 287 286 288 282 284 282 284 285 285 283 283 283 283 284 285 283 282 283 283 283 286 284 283 283 281 281 282 282 282 281 283 281 279 278 278 277 277 277 271 272 273 277 276 275 276 275 273 271 272 273 272 272 270 272 271 274 272 270 272 271 270 271
309 308 308 308 308 308 309 310 309 306 304 299 295 298 287 291 289 292 295 287 283 285 280 282 286 287 286 285 285 285 286 283 285 284 285 284 285 285 286 286 286 282 282 283 285 286 285 285 285 283 284 284 282 283 283 283 283 279 278 272 277 275 276 276 274 273 277 277 275 276 273 271 270 272 274 274 274 275 275 275 275 274 275 271 269 270 275
308 308 308 308 308 308 309 310 309 307 303 302 299 293 288 295 296 294 294 289 283 280 284 283 289 285 285 284 284 282 284 284 285 285 283 285 285 281 283 285 285 285 284 284 284 286 286 285 284 285 285 284 283 283 283 282 283 280 278 274 269 268 275 275 273 272 274 277 275 276 273 273 275 277 278 276 274 274 273 273 275 276 276 273 275 274 275
307 308 308 307 307 308 309 310 309 307 302 301 302 297 293 292 296 295 297 291 284 275 283 287 285 284 286 284 285 286 285 285 286 285 284 283 285 282 283 283 284 284 283 284 285 285 284 285 284 284 284 283 283 282 283 282 281 281 280 281 272 273 273 274 270 271 274 274 276 276 274 275 275 277 278 277 277 276 274 275 276 276 276 275 274 274 274
307 307 307 307 308 308 308 309 308 306 302 296 299 303 290 286 297 297 295 291 285 282 285 284 272 276 279 284 284 283 282 280 280 280 284 286 285 285 285 284 284 283 285 285 286 285 283 280 280 281 279 280 281 282 281 282 281 279 280 279 278 275 275 272 270 273 274 273 273 269 275 276 273 276 276 277 276 275 275 274 276 276 276 275 273 274 275
306 307 307 307 307 307 308 309 308 306 302 299 298 290 285 288 296 295 295 291 285 278 278 282 280 282 282 284 284 282 282 282 281 281 286 285 286 286 285 284 284 285 287 287 284 282 281 280 279 281 280 280 280 280 280 280 279 279 279 279 279 277 274 274 275 273 271 272 271 273 278 276 274 273 275 275 275 275 273 269 274 276 276 275 273 274 274
306 306 306 306 307 306 307 307 305 303 299 296 291 287 289 289 295 300 290 296 286 280 277 289 286 285 284 282 283 283 283 282 284 285 282 283 285 284 286 285 283 285 285 284 281 280 281 280 280 279 280 280 278 278 278 279 277 276 276 276 277 279 276 277 275 273 271 271 271 273 273 272 276 276 278 280 278 278 277 273 271 276 275 275 274 273 273
306 305 306 306 306 306 306 305 303 301 299 296 292 288 286 285 285 293 296 294 288 286 286 287 285 285 284 283 282 285 284 284 284 284 285 283 282 284 284 284 283 284 282 279 279 279 277 279 274 275 278 274 278 277 279 279 277 275 276 275 276 274 275 276 275 273 272 271 269 269 267 274 278 277 277 278 278 276 276 271 269 276 275 276 275 273 274
306 305 305 305 305 305 304 304 302 300 299 299 293 292 289 287 289 294 294 291 292 285 280 280 284 285 285 282 282 283 283 285 283 286 283 284 284 283 283 284 285 284 281 281 280 281 280 273 270 276 276 277 276 276 279 278 277 276 274 275 273 274 274 275 273 269 271 270 268 271 272 274 277 278 277 278 277 276 273 269 273 274 276 276 275 274 273
306 305 305 304 304 304 303 302 302 303 301 297 296 293 290 288 287 289 293 291 286 282 284 283 285 287 288 285 287 284 284 283 283 284 285 282 282 284 283 283 283 284 284 282 277 278 271 274 278 276 278 278 277 277 276 277 275 279 278 277 276 273 273 273 274 273 271 270 271 272 275 280 279 278 279 278 277 274 270 269 276 276 276 276 276 275 274
305 305 305 305 305 305 305 304 303 301 299 297 294 295 291 290 288 289 293 288 291 287 283 283 280 282 280 280 285 285 286 288 288 285 283 284 284 285 285 285 286 282 282 280 277 278 279 275 273 275 277 277 277 276 279 276 277 275 275 276 275 270 268 269 268 271 272 272 270 273 276 280 280 279 279 278 274 271 273 279 278 278 277 277 276 274 274
305 304 303 303 303 302 302 302 301 300 300 301 298 294 290 290 288 289 296 284 282 284 282 283 282 283 283 285 286 287 285 285 284 286 285 286 283 283 285 283 284 284 281 282 280 275 278 277 276 274 275 275 278 280 276 278 279 279 278 276 277 278 274 276 274 274 272 270 268 271 274 277 279 279 277 276 274 278 281 280 279 279 277 276 276 275 274
305 304 304 303 304 303 304 302 302 302 300 297 296 294 292 291 291 289 290 292 288 285 283 281 283 282 283 281 280 281 283 288 285 286 284 285 285 286 283 282 286 282 281 281 282 279 276 277 273 274 278 279 279 278 276 274 277 278 278 276 276 277 276 275 275 274 275 271 270 276 282 282 280 280 278 280 281 283 281 279 278 279 277 276 276 275 275
304 304 304 304 304 304 304 302 300 300 299 298 296 295 289 290 289 291 290 291 287 283 283 284 284 284 284 285 285 285 283 282 282 282 284 283 283 284 283 282 283 284 281 282 279 276 278 274 274 274 277 278 277 278 275 277 278 278 274 276 277 279 280 280 280 276 276 278 281 286 283 281 280 281 282 283 282 281 280 279 278 277 277 277 275 275 274
303 303 304 304 304 304 304 304 303 301 301 299 297 295 292 290 290 290 293 286 285 285 285 284 285 285 286 286 287 287 286 286 286 284 282 285 283 283 284 285 285 285 283 283 286 285 282 279 280 280 276 278 280 275 274 276 277 274 277 280 282 281 280 279 279 278 280 281 281 283 284 284 283 282 282 281 281 280 279 278 277 278 278 277 275 274 273
303 303 303 302 302 302 302 302 303 303 301 299 296 294 291 292 291 292 290 288 285 281 283 284 284 283 283 283 284 287 287 285 286 286 285 283 285 284 284 285 285 283 285 284 282 285 279 277 276 277 278 280 277 278 277 277 276 277 274 278 280 279 278 279 278 279 277 277 283 282 283 284 283 282 280 280 280 280 279 278 278 278 278 276 275 274 272
303 302 302 302 302 301 301 300 300 300 299 298 296 295 293 292 290 291 294 286 282 287 282 281 282 283 284 285 285 285 285 286 288 286 286 284 284 285 285 284 284 285 285 284 281 282 279 281 276 277 277 282 282 281 282 277 280 279 277 281 278 280 279 278 279 278 277 280 283 282 282 282 283 282 280 279 279 279 279 279 279 278 277 276 274 273 271
302 302 302 302 302 301 301 301 301 300 298 296 295 293 294 291 290 288 291 288 287 286 285 280 283 284 284 283 283 284 286 286 286 286 285 285 284 283 283 284 284 284 282 282 283 283 278 276 274 274 278 281 282 279 278 281 279 280 278 281 282 279 278 278 279 278 280 281 282 282 283 282 282 282 281 281 281 279 278 278 277 277 275 274 273 272 271
302 301 301 301 301 301 300 300 300 299 298 297 295 294 293 290 291 290 294 292 292 286 284 280 281 282 283 283 284 286 286 286 285 285 285 285 285 284 284 285 285 284 283 281 278 275 275 275 277 281 279 280 277 277 276 279 279 277 276 279 278 278 277 279 278 276 277 279 282 281 279 281 282 280 280 280 280 280 279 278 277 276 275 274 272 271 270
301 301 301 301 302 301 300 299 299 298 298 296 295 294 294 293 291 290 288 291 295 288 284 279 281 282 285 283 283 284 284 285 284 283 283 282 283 283 284 283 284 285 281 282 281 281 279 280 282 274 273 273 277 278 274 274 273 275 275 279 279 280 282 280 279 279 281 286 285 284 284 283 284 283 281 280 279 279 278 277 277 276 276 274 272 271 270
300 301 301 302 302 302 302 301 299 297 296 292 292 294 293 291 293 293 291 289 290 285 284 283 284 283 283 282 281 283 282 283 282 282 282 281 282 283 284 282 284 280 277 278 278 278 278 281 277 279 279 281 279 277 275 276 274 275 282 282 280 282 286 284 285 285 285 287 284 283 282 281 282 281 280 279 279 278 278 278 278 277 275 273 271 271 269
302 302 302 301 299 297 299 299 302 301 295 292 292 288 289 293 293 294 293 291 292 290 284 281 282 280 283 284 283 281 280 281 281 281 282 282 283 282 282 283 282 282 282 282 283 283 282 278 278 279 279 281 279 276 275 273 272 279 283 282 283 283 284 285 287 284 284 285 283 282 283 282 281 280 280 280 279 278 277 277 277 275 274 272 271 270 269
301 301 301 301 301 300 300 300 301 299 294 292 296 286 281 284 294 293 294 289 289 290 282 285 280 279 281 284 284 283 283 282 281 282 281 280 280 280 279 280 283 283 283 281 281 282 280 279 279 280 280 282 280 276 277 272 274 278 283 282 282 282 282 283 284 285 286 282 279 278 279 279 279 278 277 278 278 277 277 276 275 273 273 271 270 270 268
301 301 301 301 301 301 300 299 299 297 294 294 293 290 289 293 294 295 293 290 291 292 286 281 278 279 276 282 282 281 282 280 280 282 281 281 282 281 280 282 283 283 285 280 280 278 279 280 279 277 279 282 279 272 270 273 275 279 286 286 283 282 283 283 283 283 283 282 279 279 279 279 278 278 280 279 278 277 276 276 275 273 269 270 270 269 268
302 302 301 301 301 301 300 300 299 297 293 294 298 298 297 296 295 292 289 289 289 278 281 282 277 277 278 281 282 281 282 282 282 281 283 283 282 281 282 281 282 283 287 282 277 278 280 279 277 277 280 278 276 270 271 274 279 284 286 287 285 282 282 282 282 282 282 281 281 280 281 283 281 280 280 279 277 276 275 274 273 271 270 268 267 267 266
302 302 302 302 301 300 301 300 299 297 296 293 293 293 292 297 293 293 288 288 283 278 283 281 275 276 279 280 281 282 283 283 281 280 279 282 280 281 280 281 283 281 281 281 282 280 279 278 277 278 278 276 274 274 274 279 281 282 284 285 285 284 281 280 280 279 280 280 280 281 283 280 279 279 278 277 276 275 275 274 271 269 268 267 267 267 267
302 301 301 302 302 302 300 297 291 291 291 290 291 292 289 296 293 289 290 294 289 283 279 278 279 278 278 278 274 281 282 282 280 280 279 280 281 281 281 278 278 278 280 282 280 279 275 276 280 276 276 275 273 273 277 281 284 285 285 284 284 283 279 279 281 281 281 281 280 279 279 278 278 277 276 276 275 274 272 271 270 270 268 268 268 267 267
302 301 300 299 299 298 295 296 291 291 289 289 293 294 296 296 293 288 289 289 292 281 279 276 278 276 278 278 278 279 282 280 278 278 278 278 279 278 278 279 277 278 279 278 277 276 276 280 277 275 273 272 275 278 281 283 283 284 284 284 284 282 282 284 285 283 281 280 279 278 278 277 277 277 277 276 275 273 272 271 270 269 269 269 269 268 267
301 300 297 294 292 293 287 286 290 289 290 292 292 294 295 295 290 290 289 290 288 286 282 277 281 275 278 279 278 278 282 280 280 277 276 278 278 275 275 276 276 281 279 275 272 272 277 279 276 271 271 274 279 283 284 285 284 284 285 286 285 283 283 283 281 280 278 276 275 276 276 276 276 276 276 276 275 274 271 271 270 268 268 268 269 268 267
298 296 292 293 290 284 284 286 288 289 294 294 293 291 291 288 285 283 282 283 281 285 280 281 278 276 276 279 277 282 281 277 277 276 275 273 276 275 271 276 279 280 275 271 274 279 276 274 272 272 275 280 282 283 283 284 284 285 285 285 285 285 283 283 280 280 279 278 277 276 275 275 275 276 275 275 275 274 272 272 272 271 270 270 270 269 267
295 292 291 285 286 281 284 291 292 293 292 291 290 286 284 279 282 282 278 274 277 283 277 281 277 276 277 275 277 282 280 278 277 273 277 279 278 276 274 276 277 276 272 272 274 277 273 271 267 267 271 276 277 281 283 283 284 285 285 285 285 285 284 282 281 281 281 282 284 284 280 278 277 277 276 276 276 276 275 273 273 272 271 270 270 268 266
293 292 285 284 286 290 291 290 291 292 290 287 281 283 281 279 284 281 276 279 279 277 277 278 275 277 277 279 278 279 283 280 278 277 274 275 281 276 274 272 272 273 271 269 275 273 274 273 268 268 275 282 283 286 285 284 283 283 283 283 284 284 283 282 281 282 283 284 285 284 283 282 282 282 280 277 276 275 275 274 273 273 271 270 268 266 265
286 285 286 288 288 286 289 288 288 285 283 282 282 279 279 282 276 273 275 274 274 276 274 276 275 276 275 275 277 277 280 277 272 271 275 275 278 276 273 273 274 272 269 269 272 268 269 269 267 270 280 285 286 287 281 280 281 281 282 282 281 281 282 282 282 282 281 281 282 282 281 280 280 280 280 279 277 276 276 274 272 271 270 269 266 266 266
291 290 290 289 287 286 288 288 283 285 281 280 281 277 272 275 275 277 277 280 280 274 276 276 276 275 277 278 278 276 275 271 270 270 274 272 278 274 270 268 268 270 269 271 268 266 270 269 269 272 280 282 284 285 283 283 284 284 284 283 281 280 280 280 280 281 281 280 281 282 282 279 278 278 278 278 276 276 275 273 271 270 269 268 267 266 265
294 291 287 285 288 284 282 287 282 279 278 277 276 279 276 275 275 276 277 273 270 276 278 276 275 279 275 275 275 274 276 277 279 274 274 272 278 271 267 266 267 268 270 267 267 266 266 269 270 278 286 287 286 285 285 284 284 283 283 282 281 280 280 280 280 280 281 280 279 280 280 279 277 277 277 276 275 273 272 271 270 270 269 267 266 265 264
290 287 286 281 285 283 286 285 284 284 280 273 276 279 276 276 278 274 275 278 274 275 275 279 278 279 278 275 275 276 276 278 279 270 271 267 269 267 267 268 268 271 269 269 268 270 273 271 276 284 287 286 285 285 286 285 285 283 282 282 281 279 278 278 278 278 278 278 278 277 277 277 276 275 273 273 273 272 271 269 268 268 267 266 265 264 263
289 285 279 283 281 281 284 282 280 278 282 280 278 275 274 280 281 272 281 278 277 279 274 273 276 276 277 274 271 273 276 273 276 274 272 270 270 267 268 271 267 265 269 270 266 268 268 272 279 280 280 281 283 285 286 285 285 283 282 281 281 280 278 277 277 278 278 278 278 277 276 276 275 274 272 271 271 272 272 270 267 265 265 265 264 263 262
285 284 279 281 280 280 278 277 274 281 279 275 277 277 277 279 279 278 276 269 272 272 275 273 271 273 274 272 274 274 265 268 273 270 266 267 270 270 269 267 269 271 267 265 266 271 277 284 286 287 287 287 287 287 286 285 284 281 279 281 285 284 282 279 278 278 278 278 278 277 276 276 275 274 273 271 270 269 269 270 267 265 265 264 263 262 262
283 278 276 279 279 277 277 282 280 280 281 276 274 276 279 278 276 276 272 269 274 272 270 267 271 274 275 273 273 271 267 267 271 270 269 270 269 269 268 270 270 266 268 269 270 274 277 281 282 285 286 287 286 286 285 285 285 282 281 281 281 281 282 281 279 278 279 278 277 277 276 275 275 274 273 271 269 269 268 268 266 265 264 263 264 264 262
286 280 282 283 280 277 282 280 276 274 271 273 271 266 270 270 274 276 271 269 274 273 274 273 274 274 274 271 272 272 268 264 270 270 269 269 269 268 266 265 266 265 268 271 278 281 283 285 287 288 287 286 285 284 285 285 285 285 284 283 282 282 282 282 281 280 279 278 277 277 276 276 275 274 272 272 271 269 267 267 266 265 264 264 264 263 261
281 280 286 280 278 273 278 276 276 281 278 269 267 268 270 274 276 275 270 268 273 273 273 274 272 273 275 268 267 271 272 270 271 270 269 268 269 268 268 269 266 270 275 274 281 284 286 288 287 284 284 285 286 286 286 286 286 285 285 284 284 284 283 282 282 281 281 279 278 277 276 276 275 273 272 271 270 271 269 267 265 264 263 263 263 261 260
285 284 279 278 280 279 272 271 278 281 276 270 270 273 269 271 273 273 271 271 268 269 269 272 273 273 270 270 271 265 266 265 269 267 267 267 268 266 267 268 269 274 282 280 278 282 286 288 286 286 286 286 286 286 287 287 285 285 286 285 285 284 283 282 281 281 281 280 278 277 277 276 274 273 272 271 272 271 269 266 264 263 263 263 263 261 260
278 279 278 277 283 284 279 283 283 282 285 283 276 275 272 274 275 274 273 271 269 271 274 274 269 268 273 268 267 272 273 268 268 270 270 269 265 267 270 273 279 280 283 287 288 288 288 288 288 288 287 287 287 287 287 287 286 285 285 285 285 284 283 282 281 280 280 280 279 273 275 275 275 275 275 273 271 269 267 265 264 263 263 263 262 262 261
279 282 284 276 269 273 276 279 277 282 284 281 276 271 275 272 273 270 272 275 274 276 274 269 270 269 268 272 272 271 269 269 269 266 269 272 268 271 269 275 284 287 288 288 288 288 288 288 288 286 287 287 286 287 286 285 285 285 285 285 284 284 283 283 282 281 280 279 278 277 277 276 276 274 272 270 268 267 266 266 265 263 263 263 262 262 262
Wind_Speed
4 3 3 4 5 4 4 3 3 3 3 1 1 1 1 3 0 1 5 5 3 10 5 0 2 3 1 2 3 2 2 2 0 1 1 1 2 1 2 1 1 1 2 2 2 3 1 2 0 1 2 1 3 4 3 2 1 2 2 2 2 1 1 3 7 7 1 8 5 6 10 11 7 7 5 2 2 2 1 6 4 6 9 10 11 11 10
3 3 3 4 4 4 2 3 3 4 3 2 5 3 3 2 0 1 0 3 2 1 2 2 1 2 2 2 4 2 1 2 2 1 1 0 1 1 2 1 2 1 1 2 1 3 1 2 1 2 1 1 4 4 3 3 2 3 3 2 2 2 2 1 7 3 3 5 2 3 3 5 2 2 3 2 4 1 2 2 1 4 7 11 11 15 10
3 3 3 4 4 3 3 2 2 3 3 2 1 2 3 3 1 1 4 7 3 2 1 7 4 2 3 1 4 2 2 2 2 1 2 1 2 2 1 1 2 2 1 1 0 1 2 1 1 2 1 0 3 3 1 2 1 1 3 2 1 2 2 3 5 7 10 11 11 11 8 8 4 5 5 3 3 2 1 4 1 5 2 7 11 17 19
3 3 4 4 4 3 3 2 1 0 0 1 5 3 1 1 1 4 4 7 6 6 3 3 6 7 3 3 1 1 3 1 1 1 3 1 2 3 3 1 1 2 2 2 3 2 1 1 1 1 1 1 2 2 1 1 1 1 1 3 2 1 0 2 1 1 6 8 10 12 10 10 7 4 2 2 2 1 2 4 5 9 12 11 14 18 26
4 4 4 4 4 3 3 1 2 2 0 2 7 4 2 1 2 0 1 2 8 3 2 3 2 4 4 2 3 2 2 2 2 1 0 2 0 2 1 2 3 2 2 3 2 0 1 2 1 1 2 0 1 2 1 1 3 3 1 2 1 1 1 2 4 6 9 12 15 16 11 13 13 10 3 6 5 5 6 5 7 6 9 16 7 16 23
5 5 4 4 4 3 1 2 2 2 3 2 1 3 5 0 1 1 0 0 2 2 2 2 5 4 2 1 1 4 4 2 2 1 3 2 2 2 1 2 2 2 2 3 1 2 1 1 2 2 1 1 0 1 2 1 2 2 1 1 0 1 1 1 2 7 9 14 16 15 12 10 10 9 7 7 7 8 7 6 9 6 6 15 23 22 24
5 5 4 5 4 4 2 1 2 4 4 2 1 3 2 3 3 2 3 1 1 2 1 3 5 7 3 2 1 2 4 6 1 2 3 1 2 3 1 3 4 3 2 2 0 3 1 2 1 3 3 3 2 1 1 2 2 2 1 2 1 1 2 1 2 11 11 13 13 9 8 7 6 8 9 7 7 8 9 11 12 12 15 20 22 23 24
6 6 5 5 5 4 3 3 4 5 5 1 3 2 4 3 4 1 4 6 3 1 0 2 1 3 2 2 4 4 6 6 2 2 3 2 2 2 2 3 3 2 3 3 3 4 3 1 2 4 5 0 3 1 1 2 2 1 1 1 0 1 0 4 1 4 8 6 1 2 4 5 11 10 7 8 7 7 9 10 13 15 17 18 19 22 21
7 7 7 6 5 4 4 4 5 6 4 2 2 1 2 1 1 4 8 3 1 0 1 1 2 2 1 1 2 2 4 4 5 3 1 1 5 6 4 5 5 1 2 3 6 4 3 4 1 7 5 1 4 2 1 3 4 2 2 1 1 2 2 3 0 5 5 4 1 5 3 3 6 10 8 9 9 8 8 7 8 10 13 17 18 14 13
8 7 7 6 5 5 5 6 6 6 3 3 2 2 1 2 1 1 4 3 2 0 0 0 1 1 1 1 4 3 7 3 5 4 1 2 2 1 3 6 3 1 2 7 6 0 2 1 2 1 1 2 3 2 2 4 2 4 3 2 1 0 1 2 1 4 4 3 4 12 1 2 2 4 9 13 11 10 11 12 13 12 12 13 12 12 13
7 7 6 6 6 6 6 6 7 8 5 2 2 2 3 4 4 2 3 5 0 1 0 1 1 1 3 1 5 3 2 4 3 1 1 2 1 1 1 7 3 0 4 1 3 3 6 5 4 3 4 3 4 2 4 4 2 3 6 3 1 1 2 1 1 2 6 7 13 7 1 3 3 2 4 10 8 7 10 12 13 16 10 10 12 14 12
5 5 6 6 6 6 6 7 8 9 6 2 2 3 5 3 4 4 3 2 1 0 1 2 2 2 4 3 0 4 6 6 4 2 3 3 2 2 2 1 0 1 2 3 4 7 6 5 6 6 7 5 4 4 3 4 3 1 1 1 4 3 2 0 1 1 6 6 11 4 1 2 3 4 6 7 7 8 13 19 17 16 13 13 15 14 13
4 4 5 5 7 6 6 8 8 8 4 4 1 2 3 1 1 2 4 3 2 4 2 1 0 0 1 5 6 3 3 3 3 1 2 4 3 2 2 1 2 1 6 7 6 5 3 2 2 0 1 2 3 3 3 4 3 2 1 2 2 2 1 3 1 2 3 2 5 6 5 3 3 6 4 6 8 13 15 18 15 13 10 10 12 11 13
2 1 2 4 6 7 7 7 7 6 6 4 4 3 2 2 3 2 2 3 0 0 0 4 2 2 4 3 7 5 3 3 1 3 2 3 2 3 1 0 2 1 4 6 5 1 2 1 0 0 1 1 1 1 2 3 3 1 3 3 1 2 2 1 2 2 2 2 3 7 13 10 3 2 5 6 4 5 6 10 7 6 6 7 9 13 14
3 3 2 3 5 7 7 7 7 7 7 7 10 4 3 1 1 1 2 3 2 1 1 3 4 5 6 4 5 4 1 0 0 2 2 1 2 3 3 2 1 2 2 2 1 1 0 1 0 1 0 0 1 0 2 2 3 4 3 2 1 4 2 0 1 0 1 3 7 4 2 2 1 4 3 5 3 3 3 4 11 5 6 6 7 12 14
4 5 5 6 7 7 8 8 10 11 12 10 7 5 3 2 2 3 4 4 6 1 5 3 4 8 6 4 4 2 4 3 1 1 0 1 2 3 3 2 1 1 2 4 1 1 0 1 2 2 1 1 0 2 1 2 2 2 2 2 3 2 1 2 1 1 0 0 2 3 3 5 2 6 6 6 4 4 4 3 9 3 8 6 6 11 12
5 6 6 8 8 8 8 9 11 14 8 5 4 3 4 3 1 2 5 4 4 0 4 1 2 4 6 5 1 1 3 3 5 2 1 2 3 3 3 1 1 1 1 0 1 0 0 3 0 0 2 2 1 1 3 1 2 1 3 1 2 1 0 1 2 1 2 1 1 4 3 6 3 7 5 3 6 9 5 7 4 6 6 4 5 9 10
6 6 7 9 9 9 9 9 10 6 4 6 7 6 3 1 1 2 4 4 4 0 1 2 0 3 2 2 3 2 4 4 3 2 1 2 2 3 4 3 3 1 2 1 0 2 1 1 2 1 1 2 1 2 2 2 2 2 3 2 2 2 2 1 3 1 2 5 4 4 7 6 3 7 6 7 9 6 2 8 10 4 2 3 4 8 8
7 7 6 5 4 3 4 5 6 8 10 12 10 7 5 4 1 1 8 5 3 2 2 2 2 2 1 2 3 2 0 0 3 3 2 1 1 2 6 2 1 1 2 2 1 1 1 1 1 0 1 1 1 2 1 1 2 2 1 1 1 2 1 1 1 3 3 3 5 5 8 3 5 6 6 8 5 4 10 5 3 4 6 4 4 7 7
7 7 7 7 7 7 8 8 9 9 4 4 3 6 3 5 3 2 2 5 4 6 1 0 1 2 2 1 1 3 2 1 1 2 3 1 2 3 2 0 2 1 1 1 1 1 1 2 1 2 1 1 2 2 1 4 1 3 2 0 1 2 3 2 2 1 2 2 3 5 5 1 6 11 4 5 3 7 3 6 4 1 6 6 7 5 7
7 7 6 5 5 5 5 5 3 3 7 8 6 6 4 7 6 2 0 10 9 7 2 2 1 4 3 2 2 3 2 0 3 1 1 1 2 3 3 2 3 5 3 4 3 2 3 1 2 2 1 1 1 1 2 2 4 0 0 4 3 3 2 1 2 5 2 2 2 2 2 3 8 8 5 6 10 5 2 3 8 2 3 5 5 6 5
8 7 6 5 4 3 4 5 6 6 6 6 6 6 7 2 3 8 9 10 9 6 4 3 3 4 3 4 3 3 2 2 1 2 1 2 1 1 1 2 2 2 1 3 2 1 0 1 2 0 2 1 1 2 0 1 3 0 1 1 3 11 4 2 4 3 5 5 6 5 4 5 9 11 9 8 3 2 4 4 7 6 5 3 5 7 5
10 10 9 8 7 6 4 5 5 5 4 2 4 4 6 4 2 2 2 15 6 8 4 3 4 3 4 4 4 3 2 1 1 2 2 1 2 2 2 2 2 1 1 1 2 1 1 4 2 1 0 2 3 1 1 2 3 1 2 9 4 1 1 3 1 5 7 14 16 12 10 11 9 9 7 7 4 4 4 6 6 7 5 4 6 5 5
11 11 11 11 11 10 9 8 6 6 6 5 3 8 5 4 4 3 7 7 4 6 2 2 1 1 1 2 2 3 3 2 3 2 1 2 1 1 1 2 1 1 1 0 2 0 2 1 0 0 1 1 3 1 2 3 5 2 1 4 3 3 4 4 5 0 3 9 3 8 13 9 7 6 4 4 5 7 7 7 8 6 4 5 6 5 5
10 10 10 10 11 12 12 12 13 12 11 14 12 8 8 4 0 1 2 3 1 3 3 1 2 0 1 1 2 1 3 3 4 1 1 2 2 1 0 1 1 1 0 2 2 3 1 1 1 1 1 2 2 3 3 0 2 6 3 3 0 1 6 5 11 5 7 13 1 6 5 7 5 5 6 7 9 9 9 8 6 5 5 5 5 4 5
10 10 11 11 11 11 11 10 9 8 9 7 5 5 5 4 1 1 6 7 5 3 5 2 0 2 1 1 1 1 1 1 2 1 1 1 1 2 0 0 2 1 3 1 0 0 1 1 1 1 1 1 1 2 3 3 3 1 6 8 2 3 6 4 5 7 13 15 20 20 14 15 15 11 10 9 6 8 10 9 8 7 6 6 5 6 5
11 12 12 13 13 13 12 12 11 10 9 7 7 6 6 3 1 2 1 5 3 2 4 2 1 1 1 2 1 1 1 2 2 3 1 2 1 1 1 1 3 2 1 2 2 3 2 2 0 2 2 1 0 1 1 2 2 2 4 4 7 5 8 4 2 7 8 10 7 5 5 8 2 7 10 9 9 9 9 8 8 8 8 7 6 6 6
11 11 11 10 9 9 11 13 11 11 11 10 8 8 4 6 3 1 1 1 0 1 4 3 2 2 3 2 2 1 2 2 2 1 1 1 2 1 2 1 0 0 0 1 1 1 0 1 2 1 1 1 0 2 2 1 1 4 7 9 11 11 10 8 7 5 8 6 6 7 8 10 9 2 6 8 8 9 9 10 10 9 9 7 6 7 6
7 5 4 4 3 3 3 6 6 6 6 5 5 5 6 4 1 3 3 0 7 8 7 4 3 1 0 1 1 1 1 2 2 1 0 2 2 2 1 1 0 2 3 3 2 1 1 0 2 2 0 1 1 2 1 3 2 8 11 8 12 14 10 14 15 11 13 12 5 6 6 9 2 4 6 8 8 9 11 10 9 9 8 7 7 8 7
6 5 5 4 3 2 4 5 7 6 5 2 1 3 3 1 4 6 5 4 4 7 6 3 3 0 1 1 0 1 1 1 0 1 1 1 2 2 1 2 2 0 1 0 0 2 1 1 1 2 2 2 2 0 1 0 2 10 5 7 14 9 11 12 7 10 11 2 1 5 8 4 1 4 5 7 8 10 10 10 10 9 8 8 8 7 8
8 7 6 5 5 5 4 3 4 7 5 2 1 1 1 2 2 2 4 3 1 6 4 4 3 0 0 0 1 0 1 2 1 1 0 1 0 1 1 0 0 1 0 0 0 0 1 1 1 1 1 2 2 1 2 2 5 7 11 10 10 10 12 13 13 12 12 3 2 2 2 3 3 1 6 9 9 11 9 7 7 8 8 8 8 8 7
8 8 8 9 11 11 11 9 6 6 3 5 3 1 1 1 1 3 2 2 1 3 3 5 1 1 0 1 1 1 1 1 1 1 0 1 0 1 1 1 0 1 1 1 1 1 1 0 1 1 1 1 2 1 0 2 4 12 19 11 7 8 8 9 9 11 9 4 3 5 10 11 9 11 7 9 11 11 11 9 8 7 8 7 5 6 7
5 6 7 8 11 12 12 12 9 8 10 11 15 11 6 3 0 0 1 2 6 3 1 5 2 1 0 0 1 2 3 1 1 2 1 1 0 0 1 1 1 1 2 2 1 2 0 1 1 1 1 1 1 1 2 7 13 18 17 14 8 7 8 7 7 7 7 7 11 12 14 11 7 11 9 5 9 10 10 8 7 7 6 7 8 8 8
4 4 4 5 6 9 9 9 9 12 7 4 4 5 4 6 3 2 1 5 5 1 2 4 1 1 1 1 0 1 0 1 1 2 1 2 0 1 0 1 1 0 2 2 1 2 1 1 2 1 1 0 1 0 6 14 17 19 15 13 11 8 4 5 7 9 11 10 11 15 13 3 3 2 4 6 7 7 7 7 8 8 9 8 10 10 9
3 3 3 3 4 3 3 2 1 4 4 2 0 3 2 6 4 3 0 1 1 1 3 2 1 2 1 1 0 1 1 0 1 0 1 0 1 0 0 0 1 1 1 2 0 1 0 2 2 2 2 2 1 6 10 13 18 14 11 13 10 5 0 6 13 13 12 9 8 11 8 3 4 6 7 8 8 8 9 9 10 10 9 10 10 10 9
3 3 2 2 2 2 1 1 6 3 2 2 0 1 0 2 1 3 5 6 3 3 3 0 1 2 1 1 2 0 1 0 0 1 1 1 0 2 0 0 1 0 2 1 1 1 1 1 2 2 1 1 9 10 14 14 16 15 11 14 11 11 12 13 9 2 3 5 7 6 5 7 10 10 6 8 8 9 10 9 10 11 11 10 11 9 8
2 3 3 2 1 0 2 1 2 1 0 1 2 3 2 2 2 1 5 4 5 3 5 3 3 1 2 0 1 2 2 3 2 0 1 1 1 1 1 1 1 1 0 0 0 1 1 2 1 1 3 7 12 9 12 10 10 14 16 14 9 10 12 11 3 2 1 1 2 7 8 9 10 8 7 9 10 9 10 13 14 14 15 15 11 9 10
3 3 1 1 2 2 1 1 0 2 5 7 4 1 3 6 0 2 4 4 3 4 4 3 3 0 2 0 1 2 1 1 2 1 1 1 0 1 0 0 1 1 3 1 1 2 1 0 2 3 9 11 15 16 16 12 13 11 12 14 13 12 11 10 7 6 6 7 8 10 8 8 12 11 11 12 12 14 15 13 11 11 10 9 9 8 6
2 1 3 3 2 1 1 1 1 3 0 0 2 0 1 2 1 1 1 2 2 3 3 3 1 1 1 0 2 2 1 1 2 1 0 1 1 2 0 1 0 1 2 1 0 1 2 1 0 2 11 8 4 14 13 15 15 13 13 13 10 11 9 10 12 15 17 18 19 14 14 15 17 17 12 12 11 11 11 9 10 11 11 9 8 7 8
1 1 0 1 1 1 3 2 4 1 1 0 2 1 0 3 3 0 2 1 1 1 1 2 1 2 1 0 0 1 2 1 1 2 0 1 1 1 1 0 1 1 3 1 1 2 0 3 1 2 10 6 9 12 6 5 9 13 10 11 11 11 11 13 12 12 14 17 15 10 6 11 11 12 12 12 11 12 11 11 12 10 9 11 12 12 14
3 2 2 1 1 2 1 1 1 2 1 0 1 2 1 1 2 0 1 1 0 1 1 0 1 0 0 1 1 2 1 2 1 1 0 0 0 1 1 0 0 0 2 1 1 1 1 0 2 3 9 7 9 9 5 7 9 12 10 9 9 8 9 10 13 11 11 13 14 14 13 9 9 10 11 13 12 11 11 12 11 12 14 12 14 14 9
1 0 1 3 1 1 1 1 3 0 1 1 1 1 0 2 1 1 1 0 0 1 1 1 1 0 1 3 1 1 1 1 2 1 0 0 1 0 1 2 2 1 3 0 1 1 1 2 3 7 10 14 14 10 8 11 12 10 13 10 10 10 9 11 13 12 12 14 14 13 13 10 11 11 10 10 12 13 13 13 13 13 16 16 11 7 7
5 4 2 1 0 1 1 1 2 2 1 2 3 1 1 2 0 0 2 1 1 1 0 1 1 0 0 1 1 0 0 1 1 1 0 1 0 2 1 1 1 1 2 1 1 1 0 3 5 12 12 10 7 9 11 11 11 12 14 12 9 7 8 11 12 14 11 12 16 15 13 11 13 13 9 11 11 9 10 12 17 15 11 11 10 9 9
1 2 1 2 1 1 0 0 1 0 1 1 2 0 1 2 2 1 1 1 1 0 1 1 1 1 1 2 0 0 1 0 1 1 1 0 1 0 1 1 2 1 2 0 0 3 4 5 11 10 10 9 10 13 13 12 10 9 13 13 9 10 10 9 9 12 15 13 11 13 11 11 11 9 8 11 15 19 17 16 13 11 12 11 9 9 9
1 2 3 0 1 1 1 2 2 3 1 1 2 1 3 1 4 3 3 1 1 1 0 1 2 1 0 1 1 0 0 0 1 0 1 0 0 0 1 2 0 1 0 2 2 3 2 9 11 9 12 13 14 12 10 10 9 9 11 12 13 12 10 12 14 11 12 14 16 12 12 14 11 12 12 13 13 15 17 17 12 12 9 10 9 9 9
2 0 1 3 3 2 2 0 1 1 1 3 3 6 4 5 2 3 1 1 2 2 2 3 1 2 1 0 0 1 1 1 0 0 1 1 0 2 1 0 1 1 1 0 1 6 8 8 7 7 7 9 10 11 10 10 10 7 6 12 15 14 11 12 13 14 15 15 13 10 13 11 13 13 15 16 13 13 13 12 11 17 12 14 13 14 11
1 1 2 1 1 1 1 0 1 1 0 3 2 3 3 2 2 2 1 2 1 2 4 0 1 1 1 1 0 0 1 1 0 1 1 0 2 2 1 0 2 2 2 4 5 7 7 8 8 9 10 10 11 11 13 13 12 11 11 12 13 16 16 13 13 14 17 14 13 13 13 14 15 14 11 10 14 14 14 13 13 16 17 20 17 14 14
0 0 1 0 3 1 1 2 0 2 0 1 1 1 2 1 2 3 3 2 1 3 4 4 1 0 1 0 1 1 1 0 0 2 1 1 0 1 1 0 2 3 3 3 6 5 6 7 8 12 11 11 12 14 15 16 15 16 16 15 16 17 17 17 16 16 14 14 15 15 15 14 14 13 15 17 16 13 15 17 15 16 16 12 12 15 17
3 1 0 1 1 2 1 1 3 4 2 0 1 1 1 2 5 3 2 2 2 3 1 1 2 2 1 0 1 0 1 1 1 2 0 0 1 3 1 3 1 4 6 8 7 7 8 13 10 8 11 13 14 14 15 14 13 15 16 15 15 17 16 16 17 17 15 13 13 14 15 15 13 12 13 12 13 15 15 17 14 16 14 17 17 18 19
1 0 1 2 1 2 0 0 0 4 2 2 0 2 1 2 4 4 4 4 1 4 1 2 1 1 0 0 1 0 1 1 1 0 1 2 3 1 1 3 5 5 4 2 4 8 9 9 9 12 14 15 15 15 16 16 15 15 15 14 14 14 15 16 17 18 15 13 14 15 15 12 11 12 15 19 16 7 5 13 18 20 14 16 16 17 21
1 1 1 1 1 3 3 3 3 5 6 4 2 3 5 3 3 3 3 3 4 3 2 2 1 1 0 1 1 1 1 1 1 2 3 3 1 2 3 5 5 5 7 8 9 10 11 12 12 14 16 16 15 17 15 16 16 17 17 17 16 14 14 14 15 16 16 15 14 13 14 15 15 15 14 9 6 6 9 12 16 18 14 16 17 22 21
1 1 0 1 1 0 1 1 0 5 5 2 2 1 4 2 1 1 2 4 3 2 1 1 2 1 1 2 2 0 0 1 1 2 3 4 4 3 5 7 8 9 11 12 13 12 12 12 13 15 15 17 18 17 18 22 22 20 22 19 17 15 15 15 15 14 14 14 14 13 15 15 14 10 6 6 7 7 12 17 14 14 13 12 12 20 24
Wind_Direction
286 293 315 341 342 316 310 310 325 296 355 66 152 243 26 50 185 140 337 337 48 71 70 228 51 62 77 218 56 37 81 98 152 179 274 155 349 100 57 112 170 202 269 186 199 220 157 213 18 166 227 117 49 130 171 172 159 249 115 144 121 296 221 270 250 262 326 95 104 115 127 135 139 90 97 121 33 130 269 278 328 291 300 309 308 269 286
287 310 336 329 305 307 312 344 324 331 309 177 135 63 125 133 188 48 134 28 138 83 147 120 76 100 98 91 75 350 88 138 159 187 44 148 143 120 128 183 311 78 77 164 227 193 217 215 226 187 177 164 109 138 163 211 178 239 59 282 106 257 132 245 301 318 185 173 161 174 236 261 16 60 85 73 111 75 175 137 165 271 273 282 307 288 283
286 319 317 302 310 328 354 352 6 44 61 73 358 139 170 119 312 302 319 7 29 135 186 134 138 179 136 131 123 138 82 31 335 282 130 9 106 143 120 21 133 103 66 82 75 71 328 156 32 24 229 69 124 112 145 294 163 26 20 13 334 254 313 331 10 0 347 344 338 337 329 325 347 117 133 119 130 117 303 290 256 271 257 297 299 290 289
283 290 291 307 324 348 350 320 8 12 92 20 69 111 151 147 139 319 8 14 49 75 343 37 130 138 154 103 144 203 112 128 64 303 84 337 106 6 109 82 231 112 176 171 204 184 54 299 157 188 200 189 122 74 102 132 78 22 324 356 270 115 360 275 159 288 296 287 284 290 307 307 289 271 151 143 131 188 204 243 247 292 305 282 251 253 292
270 274 287 314 327 339 330 219 231 161 221 132 113 75 29 107 85 7 111 336 50 73 12 88 89 151 197 122 172 123 80 146 119 286 176 181 359 103 8 154 186 176 203 204 177 218 212 88 114 208 210 293 357 147 102 242 232 263 255 171 192 122 244 209 242 235 254 270 274 283 293 284 283 291 275 164 173 168 176 220 256 301 311 292 240 299 306
265 277 297 312 321 324 318 159 148 190 154 134 69 57 347 167 133 94 319 200 150 108 50 36 90 68 88 92 26 145 140 177 142 75 40 134 260 193 160 200 253 204 231 156 192 166 242 350 214 112 271 301 264 196 181 202 163 229 146 141 284 40 265 91 117 244 250 262 266 273 277 264 267 268 257 235 184 176 209 234 253 257 229 270 293 302 303
269 284 294 300 296 290 280 190 173 156 149 111 113 104 355 46 101 104 299 113 322 2 59 81 103 89 77 106 143 161 169 161 146 146 131 207 165 238 182 226 194 200 169 218 243 181 180 228 180 199 151 205 128 182 162 171 112 185 120 59 35 186 255 203 212 285 279 265 262 263 251 259 262 245 245 235 205 224 230 249 251 245 252 269 283 292 296
274 279 282 279 266 263 237 227 171 147 107 76 72 80 141 191 157 140 8 75 100 28 31 80 79 85 327 113 219 155 176 148 168 277 186 156 190 165 235 187 148 162 182 193 195 225 235 206 222 196 127 148 226 243 222 125 100 202 138 46 126 318 342 78 248 283 289 290 103 170 214 248 273 275 236 225 232 255 248 254 266 266 267 269 285 296 291
271 272 270 265 257 230 225 200 176 155 156 33 87 120 357 34 348 154 136 90 27 24 4 173 78 127 230 128 184 147 203 176 164 133 279 275 162 182 204 138 112 77 185 216 254 261 230 183 245 175 177 264 173 179 184 162 144 121 125 153 2 343 273 102 24 319 295 130 216 266 249 274 273 277 245 227 226 240 240 235 246 267 275 291 295 291 294
269 265 258 252 245 226 212 187 180 163 145 116 128 109 172 100 153 61 100 96 292 348 84 213 139 170 163 104 154 189 190 135 156 111 221 188 293 287 152 152 143 139 178 231 224 320 166 67 50 155 65 72 103 27 127 160 137 159 122 325 182 133 273 299 349 301 267 124 303 317 292 224 231 234 224 216 218 241 255 254 257 245 273 293 290 279 300
267 264 255 247 234 218 194 186 173 166 159 127 105 143 188 171 158 81 50 102 316 42 282 54 236 39 102 114 118 339 107 156 276 153 183 161 182 54 183 149 196 184 207 122 39 60 90 87 96 93 100 96 117 112 110 93 76 140 147 120 71 354 226 313 174 289 280 333 322 315 207 276 328 57 158 171 213 235 273 280 283 283 266 242 253 271 289
267 256 247 226 218 202 184 180 177 179 189 173 120 159 185 154 80 85 99 107 169 237 251 209 197 169 171 160 96 152 159 188 172 327 147 171 95 132 140 78 88 217 85 84 119 98 104 107 99 106 82 83 93 106 155 164 117 29 165 196 150 180 190 180 135 257 296 332 323 265 323 360 95 133 162 195 219 243 260 279 281 273 265 255 261 272 280
261 253 232 215 196 185 176 170 170 169 161 132 196 192 148 265 95 140 123 113 178 174 181 239 24 272 287 125 97 59 24 47 28 306 22 124 138 200 232 186 206 67 141 129 131 159 141 99 79 328 125 127 125 134 144 161 136 81 103 129 150 184 225 139 215 255 255 300 13 356 332 108 148 192 196 221 246 252 272 274 247 245 242 244 258 270 292
338 237 218 201 187 173 161 156 145 155 153 149 112 105 103 200 105 101 120 97 22 196 237 79 85 106 139 153 112 116 111 75 38 303 107 10 126 156 102 308 2 102 154 137 122 156 104 126 241 199 201 55 99 242 134 116 61 138 178 178 240 178 108 200 308 126 318 299 230 239 297 305 148 188 208 202 257 315 337 312 298 200 220 223 266 291 300
36 52 79 121 159 153 149 135 127 120 114 103 105 105 96 12 75 134 184 82 141 133 223 195 188 163 137 140 163 113 79 109 173 87 7 352 65 49 29 65 57 148 189 224 144 112 249 125 287 350 304 293 271 165 144 218 100 34 32 56 170 205 256 10 282 329 112 320 313 293 263 308 226 174 142 176 236 258 294 265 290 168 185 195 273 295 309
46 63 80 95 109 123 124 122 120 121 115 108 76 98 76 53 275 63 97 132 133 206 217 208 129 136 142 151 210 137 167 156 161 95 139 89 60 115 75 70 91 217 103 60 46 95 104 238 211 160 262 211 153 329 247 143 178 85 26 74 131 68 330 243 263 257 212 292 290 289 269 263 137 181 180 190 201 157 145 153 267 166 190 221 279 297 309
61 77 87 99 103 108 117 124 132 133 146 128 106 106 77 10 322 121 107 51 60 111 34 326 105 109 110 75 343 256 189 156 177 163 200 204 155 114 110 116 67 193 179 214 14 208 106 67 9 263 307 187 180 250 302 167 298 193 125 316 99 167 343 202 216 201 219 161 242 278 206 267 168 161 164 189 147 140 181 302 332 159 204 228 272 299 312
65 80 95 103 105 105 113 131 143 152 108 125 107 111 59 330 77 348 65 98 113 104 43 68 252 173 186 151 163 111 98 92 70 37 51 69 125 171 144 157 158 283 229 231 133 74 69 167 196 194 224 110 339 20 262 61 244 246 186 181 195 176 181 198 248 269 168 191 275 275 270 249 183 173 171 133 129 144 291 313 324 124 219 241 293 297 308
68 77 91 109 102 98 133 148 142 131 122 112 110 91 73 21 274 246 115 68 72 118 133 106 45 28 22 303 51 140 47 137 169 122 131 176 180 125 139 164 245 162 225 187 125 210 193 230 22 299 230 155 164 233 34 191 225 89 138 209 214 161 162 180 68 219 228 197 220 254 271 273 148 154 152 138 156 302 301 333 99 312 315 304 297 296 299
69 82 90 96 98 98 108 119 125 130 147 189 104 93 94 22 347 262 109 116 55 95 125 175 262 67 6 354 147 144 143 86 13 122 172 163 158 160 133 167 190 137 135 180 210 96 214 232 168 148 240 212 228 83 258 244 122 238 179 277 182 176 172 230 216 164 140 167 265 292 318 131 176 142 128 182 233 267 328 322 297 275 290 294 291 280 290
63 71 80 88 93 97 99 126 173 142 100 103 110 116 69 16 10 46 220 128 130 113 89 72 108 61 30 42 34 6 349 309 152 171 146 60 160 192 165 224 166 164 189 176 198 202 182 177 197 195 349 146 130 171 245 330 291 345 78 197 224 157 228 244 235 181 277 236 230 284 294 112 170 173 272 181 226 300 316 264 289 224 242 278 288 276 265
60 62 66 71 76 89 107 107 109 115 126 130 106 90 85 288 71 68 61 64 72 81 88 108 93 100 92 78 47 34 58 50 11 315 134 128 277 246 28 115 169 185 178 123 81 42 175 79 69 113 196 169 43 240 169 254 265 130 337 76 263 183 207 188 281 161 188 240 233 245 119 153 187 209 239 266 239 195 203 223 252 274 271 226 264 273 269
65 65 66 69 71 74 91 109 121 131 145 174 67 77 126 171 301 238 271 78 81 90 105 107 137 141 137 95 56 39 99 281 44 105 347 117 124 227 206 192 214 138 84 252 285 64 138 154 206 153 79 212 188 153 248 218 291 196 242 204 265 11 197 51 265 238 272 282 256 269 286 268 234 193 230 251 217 195 192 215 245 237 247 231 257 273 259
70 68 68 69 69 69 70 75 78 90 91 76 90 139 115 141 134 107 67 74 109 120 78 162 189 41 7 1 36 49 45 50 41 349 105 320 172 155 226 255 59 132 238 131 350 299 159 86 64 163 276 231 105 180 215 239 218 183 358 287 234 195 146 178 238 153 20 276 166 213 240 249 252 233 198 228 222 217 196 220 227 243 219 216 224 241 253
72 70 69 70 71 72 74 75 81 77 77 90 81 64 106 101 233 153 110 120 195 120 121 347 48 32 42 136 289 356 53 341 307 344 303 4 313 288 337 36 313 331 58 119 174 105 73 134 180 173 218 240 166 257 103 282 276 147 248 250 302 231 166 213 235 212 205 253 257 241 231 239 216 208 219 223 217 211 207 214 221 229 223 215 217 208 239
75 75 72 72 72 72 71 69 65 61 71 63 72 120 91 101 101 34 82 62 83 101 107 121 133 134 187 232 43 48 354 15 15 74 73 29 61 349 4 206 136 53 93 97 265 131 117 69 91 115 199 258 205 233 217 212 343 269 238 251 124 101 132 237 189 220 252 271 273 270 278 264 247 223 219 233 207 198 205 207 213 211 211 209 195 193 227
81 82 79 76 74 74 76 75 69 72 70 70 75 79 95 97 154 183 163 160 107 26 70 90 307 48 173 112 341 54 41 17 20 25 67 41 91 106 197 221 136 125 139 80 36 110 78 81 171 228 198 277 94 246 355 280 239 242 251 220 128 132 228 174 100 263 262 249 256 121 318 303 235 194 213 207 204 198 203 198 210 216 222 214 218 217 206
87 86 79 73 63 66 77 80 79 76 80 83 81 78 82 79 354 288 280 268 156 167 139 137 127 145 136 91 35 36 13 339 3 357 52 72 135 156 139 64 122 136 88 126 193 148 88 196 235 84 30 303 190 235 147 9 15 260 241 232 179 201 208 157 208 198 259 243 203 189 229 259 270 270 183 191 177 187 199 212 218 218 214 206 214 236 227
84 63 48 41 62 102 128 120 111 120 103 91 96 91 62 77 277 56 50 290 109 98 83 89 119 120 88 52 89 89 12 334 17 41 64 75 113 135 150 180 360 119 93 71 63 79 170 237 100 175 162 151 164 282 127 247 194 247 239 170 171 226 192 190 212 233 263 277 231 180 193 244 241 170 180 185 179 190 211 217 217 211 204 192 205 219 231
56 36 32 20 6 330 258 229 179 146 141 67 44 39 35 19 39 23 15 27 78 116 112 131 102 317 164 253 301 289 309 15 220 62 115 138 109 105 122 115 107 117 66 101 200 248 162 142 221 263 249 260 225 228 248 223 248 255 271 183 212 214 216 231 239 214 249 57 281 196 229 259 39 195 191 193 180 193 209 213 207 200 194 186 205 214 219
63 55 46 42 34 36 44 106 163 139 111 75 87 41 46 35 352 89 7 50 323 99 112 76 99 239 5 180 243 340 246 192 205 195 15 114 69 129 186 252 83 196 187 137 205 101 122 214 150 184 80 236 146 206 231 150 262 294 251 196 210 208 219 228 228 236 261 233 85 45 315 254 167 172 229 213 200 198 208 213 195 188 180 180 202 210 216
70 60 58 53 48 47 50 63 111 154 103 79 100 174 184 184 288 314 33 109 100 64 86 98 77 15 281 289 156 132 204 225 246 202 121 213 151 155 139 249 231 124 255 116 117 106 223 301 178 214 159 93 71 173 172 208 246 253 260 241 200 217 227 240 246 241 243 205 139 286 260 236 192 206 240 176 194 191 201 203 185 175 165 188 200 213 219
72 61 53 57 59 57 57 64 58 75 95 113 113 107 91 35 203 22 120 135 58 76 105 81 108 194 53 304 316 205 174 156 229 16 180 149 296 49 226 114 187 170 156 131 230 199 100 145 130 160 132 44 175 163 216 229 230 242 251 266 236 210 226 238 249 258 240 207 187 212 241 238 209 215 231 153 176 180 190 185 167 155 164 190 205 211 213
73 58 42 48 69 75 70 71 82 95 96 72 22 8 347 4 355 53 125 78 95 142 69 105 102 94 201 354 283 94 131 256 235 4 305 81 302 257 274 19 122 223 188 216 186 99 130 130 210 145 120 188 72 263 260 245 232 249 264 264 259 243 235 260 248 243 231 214 212 227 257 4 62 107 150 176 185 178 168 160 152 171 195 203 216 213 209
50 52 56 54 62 80 56 24 17 39 85 50 165 258 312 358 42 337 277 142 174 348 40 26 85 82 356 3 53 266 145 108 320 50 250 119 5 332 175 215 3 201 161 50 120 235 222 239 128 170 211 99 144 232 242 262 268 247 242 258 252 200 292 284 257 230 231 214 214 233 236 200 190 207 200 191 186 174 175 188 184 185 200 215 217 212 198
78 76 78 65 57 54 59 48 43 20 31 31 38 166 286 344 2 26 46 50 71 151 80 272 55 108 163 308 290 290 87 23 81 336 194 317 320 73 344 103 286 71 55 25 228 68 203 95 112 247 61 185 229 210 227 213 241 265 246 238 222 171 212 216 254 312 238 219 216 232 227 218 227 232 198 200 192 184 191 192 197 201 215 221 220 210 198
107 125 102 66 21 39 28 239 285 84 152 274 281 319 288 239 282 46 0 41 16 63 120 158 76 204 231 289 259 277 346 307 77 316 343 358 290 351 21 56 232 22 353 336 295 219 114 57 237 227 213 210 239 208 244 266 239 247 260 257 243 206 238 248 203 123 110 146 242 243 230 234 242 238 228 216 205 189 190 208 202 195 207 217 217 202 206
119 58 83 38 42 42 360 337 324 283 311 327 360 2 3 33 137 343 358 27 324 55 15 59 92 173 19 241 309 331 47 263 77 326 300 188 312 290 64 193 247 350 280 247 277 62 100 98 245 238 264 251 272 286 264 240 244 246 253 263 259 235 225 218 161 172 211 264 263 233 230 237 246 236 218 226 204 203 209 209 206 202 209 208 208 197 185
162 56 51 46 99 173 180 259 43 346 108 147 39 88 327 10 49 16 331 290 360 30 324 80 112 157 116 23 264 19 52 300 320 43 29 115 14 315 11 18 287 75 286 356 35 119 271 253 292 320 272 275 315 255 236 244 253 249 246 249 250 246 209 209 189 196 203 210 228 224 192 204 214 228 208 223 218 215 213 207 209 207 206 211 204 188 189
36 54 74 28 68 249 249 305 330 69 61 128 336 101 35 349 72 335 335 35 2 321 338 52 256 184 248 352 353 291 20 346 324 309 211 297 101 233 283 75 273 59 280 259 254 18 235 291 288 349 282 257 239 262 295 273 260 260 244 255 254 250 226 219 221 222 231 247 250 274 236 230 229 222 200 200 205 212 213 211 212 206 199 207 204 188 197
45 81 54 55 246 227 256 237 326 50 65 35 6 9 55 5 44 191 31 54 220 257 28 153 79 350 74 14 170 215 8 65 79 73 134 218 238 85 21 283 35 328 272 239 319 62 70 325 274 217 249 251 262 278 287 287 258 266 260 251 255 250 240 237 239 232 230 247 254 250 241 229 225 222 213 202 195 205 203 198 198 195 191 191 197 205 198
183 156 174 128 110 237 339 17 49 44 12 98 119 327 266 234 309 17 118 25 308 314 311 145 328 229 233 178 213 237 293 109 117 85 83 340 334 123 230 331 355 103 259 243 61 46 76 261 272 267 250 253 261 280 282 278 280 272 270 253 234 237 236 235 241 241 221 234 245 249 245 223 224 221 211 201 202 208 209 208 209 205 201 202 185 177 168
53 66 75 53 29 354 43 79 331 87 97 357 29 360 13 37 9 112 287 282 317 180 272 44 54 94 66 26 3 70 255 283 321 330 49 259 348 54 81 18 44 258 245 48 62 54 298 235 245 250 262 277 293 291 279 271 276 281 278 278 268 257 240 244 237 246 240 234 242 244 243 232 227 226 211 203 200 204 208 200 199 199 196 187 191 190 178
51 33 25 353 61 286 7 282 307 22 6 81 91 265 316 352 310 44 3 284 187 320 219 165 190 177 279 38 101 320 16 351 106 89 57 5 86 359 56 256 227 255 52 360 113 213 238 250 231 247 276 302 304 291 286 288 286 290 288 285 275 255 245 253 263 257 253 243 244 246 245 240 238 228 205 213 202 207 208 205 203 196 179 170 183 189 180
159 342 35 21 23 281 59 272 360 101 31 296 128 188 154 271 271 181 226 247 131 226 64 59 115 120 214 320 76 337 81 226 335 125 252 320 353 180 160 265 281 20 83 254 296 297 306 266 259 252 262 267 271 283 292 292 297 292 290 303 289 270 249 239 246 246 255 249 245 239 236 237 229 225 212 215 216 212 204 204 189 178 181 180 185 181 182
65 165 76 63 318 330 77 195 356 22 289 146 190 196 173 235 187 226 246 43 123 146 190 169 125 97 130 106 155 252 7 58 347 254 170 77 70 270 245 275 85 343 326 35 271 243 227 247 272 277 277 282 296 304 306 297 298 297 301 288 293 296 275 251 257 256 255 255 253 236 242 235 225 222 221 210 204 209 213 211 175 173 167 167 187 188 178
104 24 82 109 122 284 60 160 238 207 188 211 222 201 190 210 214 247 219 187 157 160 96 316 128 151 161 206 85 356 68 41 175 256 100 174 209 261 40 125 260 189 190 249 244 253 261 257 251 274 297 313 317 311 310 306 304 298 285 274 285 282 286 280 264 255 256 258 258 252 246 241 236 231 234 222 215 209 209 202 189 175 177 197 185 163 165
360 252 102 180 258 187 215 254 286 314 28 172 168 193 246 280 297 253 207 211 141 135 140 128 106 86 81 281 89 175 219 118 133 269 147 235 13 34 5 4 254 241 206 214 244 239 257 283 308 319 323 318 311 312 312 312 311 308 302 298 293 293 295 290 282 273 265 259 254 250 248 246 240 231 225 228 231 207 193 204 199 186 193 198 193 185 178
124 115 211 197 183 155 201 235 43 313 254 300 221 203 147 170 227 240 162 177 167 177 198 152 179 119 242 59 95 143 253 204 183 251 34 31 167 225 170 241 279 296 240 194 244 270 289 310 319 320 308 311 311 310 305 302 302 302 303 301 299 298 297 292 285 280 278 268 257 254 252 247 241 238 237 238 239 230 196 183 179 188 194 194 190 181 180
69 298 54 77 334 305 243 257 67 282 312 334 257 248 172 211 264 263 155 149 193 107 85 39 21 96 248 76 314 23 266 268 156 23 63 250 219 209 76 282 230 208 270 226 241 275 289 306 313 311 309 308 306 306 307 309 309 305 302 300 299 296 291 288 290 287 282 275 269 261 257 259 248 239 233 229 234 20 140 194 190 196 198 195 189 184 187
19 103 240 107 195 242 140 302 321 298 315 293 255 228 174 216 204 199 171 120 137 85 65 195 234 89 158 27 52 3 259 132 68 195 184 231 178 132 205 226 246 225 257 291 303 307 312 312 314 311 311 309 306 306 307 304 306 303 302 300 298 294 291 287 283 283 283 279 273 270 264 252 245 244 248 260 261 221 216 216 206 202 197 196 200 197 194
16 2 262 309 53 129 155 109 152 222 245 256 208 254 134 251 264 145 184 123 126 130 217 143 97 58 51 239 231 168 360 32 268 3 313 247 168 177 218 220 273 300 311 315 312 312 309 305 303 303 304 305 306 308 305 303 302 300 298 297 297 297 295 292 290 286 285 283 278 267 263 260 259 256 241 231 225 224 228 232 207 197 198 197 204 202 201